Voltar ao catálogo

STARLINK-36784

AtivoComunicaçõesVLEO
NORAD 67877·PAYLOAD·🇺🇸 United States

Lançado Feb 20, 2026 de Vandenberg Space Force Base

Loading…

Próximas Passagens (próximas 24 horas)

TLE

AtualizadoSource: CelesTrak SupGP

Época: Sep 15, 2026, 03:25 UTC

1 67877C 26034AD  26258.14284722  .00000394  00000+0  11643-4 0  2585
2 67877  53.1590  42.8835 0000850  84.0087 193.6081 15.34370014    17

Acompanhe STARLINK-36784 em tempo real com AllMySat

Download on the App Store